Weather Roundup
Issued by NWS

Home | Current Version | Previous Version | Text Only | Print | Product List | Glossary On
Versions: 1 2 3 4 5 6 7 8 9 10 11 12 13 14 15 16 17 18 19 20 21 22 23 24 25 26 27 28 29 30 31 32 33 34 35 36 37 38 39 40 41 42 43 44 45 46 47 48 49 50
000
NZUS93 KARX 211359
HRRWXR

CURRENT HOURLY OBSERVATIONS ACROSS
MUCH OF THE UPPER MISSISSIPPI VALLEY
NATIONAL WEATHER SERVICE LA CROSSE WI
800 AM CST SUN DEC 21 2014


...SOUTHEAST MINNESOTA...


CITY           SKY/WX    TMP DP  RH WIND       PRES   REMARKS
ROCHESTER      FOG       33  32  96 S18       29.92F VSB 1/4 WCI  22
ROCHESTER/MAYO CLOUDY    33  33 100 SE7G18    29.93F VSB 3/4 WCI  27
WINONA         CLOUDY    34  32  93 SE8       29.99F FOG     WCI  27
AUSTIN         MIX PCPN  34  34 100 S12G18    29.90F VSB 1/2 WCI  25
ALBERT LEA     MIX PCPN  34  34 100 S9        29.89S VSB 1/4 WCI  26
DODGE CENTER   FOG       34  34 100 S17       29.90F VSB 1/4 WCI  23
PRESTON        FOG       32  32 100 S14G21    29.95F VSB<1/4 WCI  22
OWATONNA       CLOUDY    34  34 100 S12G17    29.90S FOG     WCI  25
FARIBAULT      CLOUDY    34  34 100 S9G16     29.90F FOG     WCI  26
$$

...ELSEWHERE IN MINNESOTA...


CITY           SKY/WX    TMP DP  RH WIND       PRES   REMARKS
MINNEAPOLIS    CLOUDY    33  32  96 SE13      29.89F FOG     WCI  24
INTNL FALLS    LGT SNOW  29  26  89 VRB7      29.80F FOG     WCI  22
DULUTH         FRZ DRZL  30  27  88 S14       29.87F FOG     WCI  19
RED WING       CLOUDY    34  32  93 SE7       29.94F FOG     WCI  28
REDWOOD FALLS  FOG       32  32 100 S8        29.83F VSB 1/2 WCI  25
MANKATO        CLOUDY    34  30  86 S12       29.87F WCI  25
WORTHINGTON    CLOUDY    34  32  93 S10       29.80F WCI  26
FAIRMONT       CLOUDY    34  32  93 S14       29.84F VSB 3/4 WCI  24
$$

...SOUTHWEST WISCONSIN...


CITY           SKY/WX    TMP DP  RH WIND       PRES   REMARKS
LA CROSSE      CLOUDY    35  32  88 S10       30.02F FOG     WCI  27
PRAIRIE DU CHI CLOUDY    35  33  92 SE5       30.05F FOG     WCI  31
BOSCOBEL       CLOUDY    36  32  85 VRB5      30.06F FOG     WCI  32
LONE ROCK      NOT AVBL
PLATTEVILLE    CLOUDY    33  33  98 SE12      30.08F WCI  25
FORT MC COY    CLOUDY    33  31  94 SE14      30.04F FOG     WCI  23
VIROQUA        CLOUDY    32  32 100 SE10G16   30.02F VSB 1/4 WCI  23
WIS DELLS      NOT AVBL
$$

...ELSEWHERE IN WISCONSIN...


CITY           SKY/WX    TMP DP  RH WIND       PRES   REMARKS
MILWAUKEE      CLOUDY    32  26  78 S10       30.17F WCI  24
MADISON        CLOUDY    32  30  92 S13       30.11F FOG     WCI  22
GREEN BAY      CLOUDY    31  28  89 SE6       30.13F FOG     WCI  25
EAU CLAIRE     CLOUDY    32  28  85 SE8       29.97F FOG     WCI  25
BLACK RVR FLS  CLOUDY    32  30  94 SE5       30.02F FOG     WCI  27
MEDFORD        CLOUDY    28  27  96 SE8       30.00F FOG     WCI  20
WAUSAU         CLOUDY    29  27  92 SE8       30.03F FOG     WCI  21
WIS RAPIDS     CLOUDY    30  27  88 SE9       30.06F FOG     WCI  22
MARSHFIELD     CLOUDY    30  28  92 S10       30.02F FOG     WCI  21
RICE LAKE      CLOUDY    31  29  94 SE9       29.96F FOG     WCI  23
$$

...NORTHEAST IOWA...


CITY           SKY/WX    TMP DP  RH WIND       PRES   REMARKS
DECORAH        FOG       34  34 100 S10G16    29.99S VSB 1/4 WCI  26
MASON CITY     CLOUDY    35  34  96 S17       29.92F FOG     WCI  25
CHARLES CITY   CLOUDY    34  34 100 S17       29.96F FOG     WCI  23
OELWEIN        CLOUDY    36  36 100 S16G23    30.01F FOG     WCI  26
$$

...ELSEWHERE IN IOWA...


CITY           SKY/WX    TMP DP  RH WIND       PRES   REMARKS
DES MOINES     CLOUDY    39  34  82 S14       29.98F WCI  31
IOWA CITY      CLOUDY    37  34  89 S13       30.09F WCI  29
FORT DODGE     CLOUDY    36  34  93 S16       29.90F WCI  26
$$

...NORTHERN ILLINOIS...


CITY           SKY/WX    TMP DP  RH WIND       PRES   REMARKS
CHICAGO-OHARE  CLOUDY    32  27  81 S8        30.20F WCI  25
CHICAGO-MIDWAY CLOUDY    34  27  75 S10       30.22F WCI  26
MOLINE         CLOUDY    36  32  85 S8        30.12F WCI  30
ROCKFORD       CLOUDY    33  29  85 S12       30.17F WCI  24
PEORIA         CLOUDY    36  30  79 S8        30.18F HAZE    WCI  30
$$

NOTE: "FAIR" INDICATES FEW OR NO CLOUDS BELOW 12,000 FEET WITH NO
SIGNIFICANT WEATHER AND/OR OBSTRUCTIONS TO VISIBILITY. WIND
SPEEDS ARE IN MILES-PER-HOUR.



USA.gov is the U.S. government's official web portal to all federal, state and local government web resources and services.